Location: Broletto
(44.6000°N, 10.5833°E)
Time: 07:30:06
(UTC+00:00)

COSMOS 2428 - Pass Details

Date: 18 April 2021
Orbit: 844 x 859 km, 70.9° (Epoch: 06 May)

Event Time Altitude Azimuth Distance (km) Brightness Sun altitude
Rises 18:54:34 0° 337° (NNW) 3,441 6.7 -8.8°
Reaches altitude 10° 18:57:06 10° 342° (NNW) 2,502 5.8 -9.2°
Maximum altitude 19:02:44 53° 59° (ENE) 1,049 3.0 -10.1°
Enters shadow 19:07:47 13° 135° (SE) 2,293 4.4 -10.9°
